Location: Asheville, NC
(35.6000°N, 82.5500°W)
Time: 16:00:08
(UTC-04:00)

Vanguard 2 - Pass Details

Date: 16 December 2017
Orbit: 553 x 2939 km, 32.9° (Epoch: 22 June)

Event Time Altitude Azimuth Distance (km) Brightness Sun altitude
Rises 14:45:19 0° 243° (WSW) 5,507 12.9 22.5°
Reaches altitude 10° 14:49:39 10° 239° (WSW) 4,111 12.6 22.0°
Maximum altitude 14:59:22 53° 167° (SSE) 1,430 9.6 20.8°
Drops below altitude 10° 15:05:14 10° 91° (E) 2,527 9.9 20.1°
Sets 15:07:20 0° 86° (E) 3,266 10.4 19.8°
